Weather History for KJFK - October, 2013

Change the Weather History Date:

Thursday, October 24, 2013

  Actual Average Record
Temperature  
Mean Temperature 49 °F 54 °F  
Max Temperature 56 °F 62 °F 73 °F (2001)
Min Temperature 41 °F 47 °F 32 °F (1969)
Degree Days  
Heating Degree Days 16 11  
Month to date heating degree days 94 177  
Since 1 July heating degree days 139 216  
Cooling Degree Days 0 0  
Month to date cooling degree days 39 12  
Year to date cooling degree days 1111 1003  
Moisture  
Dew Point 28 °F    
Average Humidity 48    
Maximum Humidity 70    
Minimum Humidity 26    
Precipitation  
Precipitation 0.00 in 0.12 in 1.14 in (1983)
Month to date precipitation 0.28 2.86  
Year to date precipitation 28.39 35.32  
Snow  
Snow 0.00 in 0.00 in - ()
Month to date snowfall 0.0 0.0  
Since 1 July snowfall 0.0 0.0  
Snow Depth 0.00 in    
Sea Level Pressure  
Sea Level Pressure 29.91 in    
Wind  
Wind Speed 15 mph (West)    
Max Wind Speed 24 mph    
Max Gust Speed 30 mph    
Visibility 10 miles    
Events      
T = Trace of Precipitation, MM = Missing Value Source: NWS Daily Summary

Daily Weather History Graph

Daily Weather History Graph

Search for Another Location

Airport or City:

Trip Planner

Search our weather history database for the weather conditions in past years. The results will help you decide how hot, cold, wet, or windy it might be!

Date:

Astronomy

Oct. 24, 2013 Rise Set
Actual Time 7:16 AM EDT 6:01 PM EDT
Civil Twilight 6:48 AM EDT 6:29 PM EDT
Nautical Twilight 6:16 AM EDT 7:01 PM EDT
Astronomical Twilight 5:44 AM EDT 7:33 PM EDT
Moon 10:22 PM EDT (10/24) 12:16 PM EDT (10/24)
Length of Visible Light 11h 41m
Length of Day
10h 45m
Waning Gibbous, 71% of the Moon is Illuminated
Oct 24
Waning Gibbous
Oct 26
Last Quarter
Nov 3
New
Nov 10
First Quarter
Nov 17
Full

Hourly Weather History & Observations

Time (EDT) Temp. Windchill Dew Point Humidity Pressure Visibility Wind Dir Wind Speed Gust Speed Precip Events Conditions
12:51 AM 46.0 °F 41.0 °F 34.0 °F 63% 29.77 in 10.0 mi WNW 10.4 mph - N/A   Partly Cloudy
1:51 AM 46.0 °F 39.0 °F 33.1 °F 61% 29.79 in 10.0 mi NW 17.3 mph - N/A   Partly Cloudy
2:51 AM 44.1 °F 37.7 °F 32.0 °F 63% 29.81 in 10.0 mi WNW 12.7 mph - N/A   Partly Cloudy
3:51 AM 44.1 °F 39.0 °F 32.0 °F 63% 29.82 in 10.0 mi WNW 9.2 mph - N/A   Partly Cloudy
4:51 AM 44.1 °F 37.1 °F 33.1 °F 65% 29.85 in 10.0 mi WNW 15.0 mph - N/A   Partly Cloudy
5:51 AM 42.1 °F 35.7 °F 33.1 °F 70% 29.87 in 10.0 mi WNW 11.5 mph - N/A   Partly Cloudy
6:51 AM 41.0 °F 35.2 °F 32.0 °F 70% 29.90 in 10.0 mi WNW 9.2 mph - N/A   Scattered Clouds
7:51 AM 42.1 °F 36.6 °F 32.0 °F 67% 29.92 in 10.0 mi West 9.2 mph - N/A   Scattered Clouds
8:51 AM 42.1 °F 36.6 °F 34.0 °F 73% 29.94 in 10.0 mi West 9.2 mph - N/A   Scattered Clouds
9:51 AM 44.1 °F 38.1 °F 31.1 °F 60% 29.94 in 10.0 mi West 11.5 mph - N/A   Partly Cloudy
10:51 AM 48.0 °F - 28.9 °F 48% 29.93 in 10.0 mi West 16.1 mph - N/A   Partly Cloudy
11:51 AM 51.1 °F - 28.0 °F 41% 29.93 in 10.0 mi West 15.0 mph - N/A   Partly Cloudy
12:51 PM 53.1 °F - 28.0 °F 38% 29.91 in 10.0 mi West 17.3 mph 25.3 mph N/A   Scattered Clouds
1:51 PM 55.0 °F - 27.0 °F 34% 29.89 in 10.0 mi West 19.6 mph 25.3 mph N/A   Scattered Clouds
2:51 PM 55.9 °F - 25.0 °F 30% 29.88 in 10.0 mi West 20.7 mph 26.5 mph N/A   Scattered Clouds
3:51 PM 54.5 °F - 22.8 °F 29% 29.89 in 10.0 mi West 15.0 mph 26.5 mph N/A   Scattered Clouds
4:51 PM 53.4 °F - 19.9 °F 27% 29.90 in 10.0 mi WSW 18.4 mph - N/A   Scattered Clouds
5:51 PM 51.1 °F - 19.0 °F 28% 29.92 in 10.0 mi West 17.3 mph 25.3 mph N/A   Mostly Cloudy
6:51 PM 50.2 °F - 21.0 °F 32% 29.95 in 10.0 mi West 18.4 mph 26.5 mph N/A   Scattered Clouds
7:51 PM 48.4 °F - 22.1 °F 36% 29.98 in 10.0 mi West 20.7 mph 25.3 mph N/A   Partly Cloudy
8:51 PM 47.1 °F - 27.0 °F 46% 29.99 in 10.0 mi West 16.1 mph 24.2 mph N/A   Scattered Clouds
9:51 PM 46.4 °F 40.7 °F 27.0 °F 47% 30.01 in 10.0 mi West 12.7 mph - N/A   Scattered Clouds
10:51 PM 46.0 °F 38.8 °F 28.0 °F 50% 30.02 in 10.0 mi West 18.4 mph 24.2 mph N/A   Partly Cloudy
11:51 PM 45.0 °F 38.9 °F 27.0 °F 49% 30.03 in 10.0 mi West 12.7 mph 20.7 mph N/A   Partly Cloudy